Погода в Зимнице

Россия / Смоленская область     55°10′29″N   33°41′18″E
темп.,
°C
ветер,
м/с
пор.,
м/с
влажн.,
%
обл.,
%
осадки,
мм/ч
давл.,
гПа
погр.,
м
28 января, чт
чт2800:00−5ю2397100 0.0 100752
03:00−5ююв2297100 0.0 100629
06:00−5в1295100 0.0 100623
09:00−4всв2295100 0.0 100579
12:00−2св2496100 0.4 1004215
15:00−1св3596100 1.1 1002346
18:00−2св2498100 0.9 1001201
21:000всв1299100 2.2 99991
29 января, пт
пт2900:00+2юв39100100 0.8 997340
03:00+2юв3998100 1.3 995343
06:00+2ююв41199100 0.9 993570
09:000ююв61184100 1.1 992961
12:00−2ююв6118691 0.1 9911080
15:00−2юв5109396 0.5 989859
18:00−2ю4997100 1.0 989563
21:00−5ююз4993100 1.4 990526
30 января, сб
сб3000:00−6ююз389494 0.1 991303
03:00−7ююз499596 0.2 992384
06:00−7ююз41094100 0.4 992471
09:00−7ююз51093100 0.7 993531
12:00−6ююз51190100 0.2 995579
15:00−6ююз5989100 0.3 995652
18:00−6ююз4892100 0.1 995604
21:00−5ю3893100 0.2 996617
31 января, вс
вс3100:00−6юв2397100 0.2 994138
03:00−6всв1397100 0.5 99391
06:00−5ссв2496100 0.7 990196
09:00−6с3795100 1.0 990282
12:00−5ссз4890100 0.1 990475
15:00−5зсз4890100 0.1 992633
18:00−6зсз51089100 0.1 995820
21:00−6з51193100 0.3 998715
1 февраля, пн
пн100:00−7зюз51292100 0.1 1000591
03:00−7зюз51292100 0.1 1003621
06:00−8зюз41194100 0.1 1005459
09:00−9юз3896100 0.1 1008281
12:00−8ююз4794100 0.1 1010331
15:00−6ю2493100 0.1 1010251
18:00−7юв2696100 0.0 1008196
21:00−7вюв3991100 0.0 1007283